CDT,Max TemperatureF,Mean TemperatureF,Min TemperatureF,Max Dew PointF,MeanDew PointF,Min DewpointF,Max Humidity, Mean Humidity, Min Humidity, Max Sea Level PressureIn, Mean Sea Level PressureIn, Min Sea Level PressureIn, Max VisibilityMiles, Mean VisibilityMiles, Min VisibilityMiles, Max Wind SpeedMPH, Mean Wind SpeedMPH, Max Gust SpeedMPH,PrecipitationIn, CloudCover, Events, WindDirDegrees
2013-4-1,30,22,15,18,14,9,86,71,56,30.29,30.24,30.14,10,10,10,21,14,25,0.00,0,,300
2013-4-2,32,24,17,21,17,14,93,71,50,30.36,30.32,30.26,10,10,10,13,7,17,0.00,0,,305
2013-4-3,45,33,21,36,27,18,100,76,63,30.36,30.24,30.03,10,10,10,18,5,24,0.00,1,,159
2013-4-4,45,36,29,32,30,24,94,73,53,30.19,30.10,30.01,10,10,5,22,12,25,0.00,2,,295
2013-4-5,34,30,25,32,26,19,98,82,62,30.23,30.11,29.82,10,9,1,22,10,29,0.01,4,Snow,83
2013-4-6,51,42,34,45,35,30,93,81,72,29.81,29.64,29.52,10,10,4,21,14,26,0.11,6,Rain,72
2013-4-7,44,38,32,42,34,29,99,88,77,29.94,29.84,29.74,10,8,3,12,7,,0.32,7,Rain,66
2013-4-8,43,40,37,42,39,36,100,95,88,30.04,29.81,29.67,10,6,0,16,9,23,0.10,8,Fog-Rain,32
2013-4-9,38,33,28,36,29,26,96,82,67,30.18,30.06,29.99,10,8,1,28,12,36,0.13,8,Rain-Snow,15
2013-4-10,33,32,30,31,27,21,96,84,64,30.17,30.03,29.89,10,7,1,23,15,37,0.09,8,Rain-Snow,50
2013-4-11,33,30,27,32,29,27,99,93,82,29.87,29.73,29.68,10,4,0,24,17,32,0.07,8,Rain-Snow,46
2013-4-12,34,30,25,29,26,24,96,87,70,29.86,29.76,29.70,10,7,1,15,10,18,0.06,8,Snow,327
2013-4-13,32,44,25,46,25,23,96,84,52,29.99,29.89,29.85,10,9,2,14,9,18,0.00,6,Snow,267
2013-4-14,35,32,28,33,28,24,100,89,77,29.91,29.66,29.44,10,7,1,23,12,33,0.22,8,Rain-Snow,87
2013-4-15,36,33,30,30,28,25,88,81,73,29.99,29.70,29.49,10,10,10,25,16,32,0.01,6,,238
2013-4-16,39,34,30,30,27,24,89,76,61,30.33,30.19,30.00,10,10,10,16,11,21,0.00,4,,307
2013-4-17,38,35,32,34,29,27,100,82,74,30.32,30.16,29.96,10,9,2,17,9,24,0.09,8,Rain-Snow,35
2013-4-18,32,31,30,32,30,28,100,95,92,29.95,29.73,29.60,10,4,0,26,15,37,0.16,8,Snow,345
2013-4-19,35,30,26,29,24,18,95,75,58,30.01,29.75,29.57,10,8,2,28,18,36,0.02,5,Snow,309
2013-4-20,34,24,15,28,17,13,93,65,41,30.29,30.24,30.12,10,10,3,9,5,,0.00,1,Snow,138
2013-4-21,46,38,30,44,35,28,98,90,78,30.29,30.13,30.01,10,9,2,21,11,26,0.16,6,Rain-Snow,145
2013-4-22,39,34,30,32,30,26,96,85,67,30.24,30.18,30.14,10,8,1,22,11,28,0.00,7,Rain-Snow,354
2013-4-23,37,29,21,28,23,18,94,75,54,30.21,30.15,30.09,10,10,5,17,13,25,0.03,1,Snow,305
2013-4-24,47,37,27,35,29,24,98,79,47,30.08,29.99,29.93,10,9,1,22,8,30,0.04,3,Rain-Snow,244
2013-4-25,50,39,28,35,29,25,90,72,48,30.21,30.12,30.01,10,10,10,17,11,23,0.00,3,,224
2013-4-26,68,54,39,43,38,33,87,59,32,30.15,30.03,29.94,10,10,10,20,9,30,0.00,1,Rain,262
2013-4-27,72,52,32,46,36,31,100,56,22,30.16,30.04,29.88,10,10,10,9,2,,0.00,0,,180
2013-4-28,81,64,48,52,46,41,89,60,28,29.87,29.77,29.67,10,10,7,22,10,30,0.04,1,Rain,199
2013-4-29,73,58,42,54,43,36,83,58,29,29.85,29.72,29.51,10,10,10,15,9,20,0.03,0,,67
2013-4-30,67,60,52,59,45,30,84,57,28,29.99,29.64,29.38,10,10,10,23,13,32,0.00,2,,264